• en France
  • Liste des pays
  • À 7 jours
  • Température de l'eau
  • Carte satellitaire
  • Carte météo
  • Widgets météo
  • user-avatar
    Se connecter

    Météo par heure à Bucaramanga

    Ce jour, 21 Mai, Lundi

    Heure Température Précipitation Vent Pression Humidité
    00:00 +20°C° 1,8 mm 0 m/s 673 mmHg 90%
    01:00 +20°C° 1,8 mm 0 m/s 673 mmHg 91%
    02:00 +20°C° 1,8 mm 0 m/s 672 mmHg 92%
    03:00 +19°C° 1,8 mm 0 m/s 672 mmHg 92%
    04:00 +19°C° 1,8 mm 0 m/s 672 mmHg 93%
    05:00 +20°C° 1,2 mm 0 m/s 672 mmHg 92%
    06:00 +20°C° 1,2 mm 0 m/s 673 mmHg 92%
    07:00 +20°C° 1,2 mm 0 m/s 673 mmHg 92%
    08:00 +21°C° 0,5 mm 0 m/s 673 mmHg 87%
    09:00 +24°C° 0,5 mm 1 m/s 674 mmHg 82%
    10:00 +26°C° 0,5 mm 1 m/s 674 mmHg 78%
    11:00 +26°C° 0,4 mm 1 m/s 674 mmHg 74%
    12:00 +27°C° 0,4 mm 1 m/s 673 mmHg 71%
    13:00 +28°C° 0,4 mm 1 m/s 673 mmHg 67%
    14:00 +28°C° 0,7 mm 1 m/s 672 mmHg 69%
    15:00 +27°C° 0,7 mm 1 m/s 672 mmHg 70%
    16:00 +27°C° 0,7 mm 1 m/s 671 mmHg 72%
    17:00 +26°C° 1 mm 1 m/s 671 mmHg 76%
    18:00 +25°C° 1 mm 1 m/s 671 mmHg 79%
    19:00 +24°C° 1 mm 1 m/s 672 mmHg 82%
    20:00 +21°C° 0,7 mm 0 m/s 672 mmHg 83%
    21:00 +21°C° 0,7 mm 0 m/s 673 mmHg 84%
    22:00 +21°C° 0,7 mm 0 m/s 673 mmHg 85%
    23:00 +21°C° 0,8 mm 0 m/s 673 mmHg 86%

    Demain, 22 Mai, Mardi

    Heure Température Précipitation Vent Pression Humidité
    00:00 +20°C° 0,8 mm 0 m/s 673 mmHg 87%
    01:00 +20°C° 0,8 mm 0 m/s 672 mmHg 88%
    02:00 +20°C° 0,8 mm 0 m/s 672 mmHg 89%
    03:00 +20°C° 0,8 mm 0 m/s 672 mmHg 90%
    04:00 +19°C° 0,8 mm 0 m/s 672 mmHg 90%
    05:00 +20°C° 0,7 mm 0 m/s 672 mmHg 90%
    06:00 +20°C° 0,7 mm 0 m/s 673 mmHg 89%
    07:00 +21°C° 0,7 mm 0 m/s 673 mmHg 88%
    08:00 +24°C° 0,5 mm 1 m/s 674 mmHg 83%
    09:00 +25°C° 0,5 mm 1 m/s 674 mmHg 77%
    10:00 +27°C° 0,5 mm 1 m/s 674 mmHg 72%
    11:00 +27°C° 0,4 mm 1 m/s 674 mmHg 70%
    12:00 +28°C° 0,4 mm 1 m/s 673 mmHg 68%
    13:00 +29°C° 0,4 mm 1 m/s 673 mmHg 66%
    14:00 +28°C° 0,9 mm 1 m/s 672 mmHg 68%
    15:00 +28°C° 0,9 mm 1 m/s 672 mmHg 71%
    16:00 +27°C° 0,9 mm 1 m/s 671 mmHg 73%
    17:00 +26°C° 1 mm 1 m/s 671 mmHg 76%
    18:00 +25°C° 1 mm 1 m/s 671 mmHg 79%
    19:00 +24°C° 1 mm 1 m/s 672 mmHg 82%
    20:00 +23°C° 1,1 mm 1 m/s 672 mmHg 83%
    21:00 +23°C° 1,1 mm 1 m/s 673 mmHg 83%
    22:00 +23°C° 1,1 mm 1 m/s 673 mmHg 84%
    23:00 +23°C° 1,4 mm 1 m/s 673 mmHg 85%

    Après-demain, 23 Mai, Mercredi

    Heure Température Précipitation Vent Pression Humidité
    00:00 +22°C° 1,4 mm 1 m/s 673 mmHg 86%
    01:00 +22°C° 1,4 mm 1 m/s 672 mmHg 87%
    02:00 +22°C° 1,2 mm 1 m/s 672 mmHg 88%
    03:00 +22°C° 1,2 mm 1 m/s 672 mmHg 89%
    04:00 +22°C° 1,2 mm 1 m/s 672 mmHg 90%
    05:00 +22°C° 0,8 mm 1 m/s 673 mmHg 90%
    06:00 +22°C° 0,8 mm 1 m/s 673 mmHg 90%
    07:00 +22°C° 0,8 mm 1 m/s 673 mmHg 90%
    08:00 +23°C° 0,7 mm 1 m/s 674 mmHg 87%
    09:00 +24°C° 0,7 mm 1 m/s 674 mmHg 84%
    10:00 +25°C° 0,7 mm 1 m/s 675 mmHg 81%
    11:00 +26°C° 0,7 mm 1 m/s 674 mmHg 80%
    12:00 +26°C° 0,7 mm 1 m/s 674 mmHg 78%
    13:00 +26°C° 0,7 mm 1 m/s 673 mmHg 76%
    14:00 +26°C° 0,7 mm 1 m/s 673 mmHg 79%
    15:00 +26°C° 0,7 mm 1 m/s 672 mmHg 82%
    16:00 +25°C° 0,7 mm 1 m/s 672 mmHg 85%
    17:00 +24°C° 0,5 mm 1 m/s 672 mmHg 87%
    18:00 +24°C° 0,5 mm 1 m/s 672 mmHg 90%
    19:00 +21°C° 0,5 mm 0 m/s 672 mmHg 92%
    20:00 +21°C° 0,4 mm 0 m/s 673 mmHg 91%
    21:00 +22°C° 0,4 mm 1 m/s 673 mmHg 90%
    22:00 +22°C° 0,4 mm 1 m/s 674 mmHg 89%
    23:00 +22°C° 0,9 mm 1 m/s 674 mmHg 89%

    24 Mai, Jeudi

    Heure Température Précipitation Vent Pression Humidité
    00:00 +22°C° 0,9 mm 1 m/s 673 mmHg 89%
    01:00 +22°C° 0,9 mm 1 m/s 673 mmHg 90%
    02:00 +20°C° 0,8 mm 0 m/s 673 mmHg 90%
    03:00 +19°C° 0,8 mm 0 m/s 673 mmHg 90%
    04:00 +19°C° 0,8 mm 0 m/s 673 mmHg 91%
    05:00 +20°C° 0,3 mm 0 m/s 673 mmHg 90%
    06:00 +20°C° 0,3 mm 0 m/s 674 mmHg 89%
    07:00 +21°C° 0,3 mm 0 m/s 674 mmHg 89%
    08:00 +24°C° 0,3 mm 1 m/s 675 mmHg 84%
    09:00 +25°C° 0,3 mm 1 m/s 675 mmHg 80%
    10:00 +26°C° 0,3 mm 1 m/s 675 mmHg 76%
    11:00 +27°C° 0,6 mm 1 m/s 675 mmHg 75%
    12:00 +27°C° 0,6 mm 1 m/s 674 mmHg 74%
    13:00 +27°C° 0,6 mm 1 m/s 673 mmHg 73%
    14:00 +27°C° 1 mm 1 m/s 673 mmHg 76%
    15:00 +27°C° 1 mm 1 m/s 672 mmHg 79%
    16:00 +26°C° 1 mm 1 m/s 672 mmHg 82%
    17:00 +25°C° 1,1 mm 1 m/s 672 mmHg 85%
    18:00 +24°C° 1,1 mm 1 m/s 673 mmHg 87%
    19:00 +21°C° 1,1 mm 0 m/s 673 mmHg 90%
    20:00 +23°C° 0,9 mm 1 m/s 673 mmHg 90%
    21:00 +23°C° 0,9 mm 1 m/s 674 mmHg 89%
    22:00 +23°C° 0,9 mm 1 m/s 674 mmHg 89%
    23:00 +22°C° 1,5 mm 1 m/s 674 mmHg 90%

    25 Mai, Vendredi

    Heure Température Précipitation Vent Pression Humidité
    00:00 +22°C° 1,5 mm 1 m/s 673 mmHg 91%
    01:00 +22°C° 1,5 mm 1 m/s 673 mmHg 92%
    02:00 +22°C° 1,4 mm 1 m/s 673 mmHg 92%
    03:00 +20°C° 1,4 mm 0 m/s 673 mmHg 92%
    04:00 +19°C° 1,4 mm 0 m/s 672 mmHg 92%
    05:00 +20°C° 0,7 mm 0 m/s 673 mmHg 92%
    06:00 +20°C° 0,7 mm 0 m/s 673 mmHg 91%
    07:00 +20°C° 0,7 mm 0 m/s 674 mmHg 91%
    08:00 +22°C° 0,2 mm 0 m/s 674 mmHg 86%
    09:00 +25°C° 0,2 mm 1 m/s 674 mmHg 81%
    10:00 +26°C° 0,2 mm 1 m/s 674 mmHg 75%
    11:00 +27°C° 0,3 mm 1 m/s 674 mmHg 74%
    12:00 +27°C° 0,3 mm 1 m/s 673 mmHg 72%
    13:00 +28°C° 0,3 mm 1 m/s 673 mmHg 71%
    14:00 +27°C° 1,2 mm 1 m/s 672 mmHg 74%
    15:00 +27°C° 1,2 mm 1 m/s 672 mmHg 76%
    16:00 +26°C° 1,2 mm 1 m/s 671 mmHg 79%
    17:00 +25°C° 1,3 mm 1 m/s 672 mmHg 83%
    18:00 +24°C° 1,3 mm 1 m/s 672 mmHg 86%
    19:00 +23°C° 1,3 mm 1 m/s 672 mmHg 90%
    20:00 +23°C° 1,3 mm 1 m/s 673 mmHg 91%
    21:00 +23°C° 1,3 mm 1 m/s 673 mmHg 93%
    22:00 +22°C° 1,3 mm 1 m/s 673 mmHg 94%
    23:00 +22°C° 1,7 mm 1 m/s 673 mmHg 94%

    26 Mai, Samedi

    Heure Température Précipitation Vent Pression Humidité
    00:00 +22°C° 1,7 mm 1 m/s 673 mmHg 95%
    01:00 +20°C° 1,7 mm 0 m/s 672 mmHg 95%
    02:00 +20°C° 1,6 mm 0 m/s 672 mmHg 95%
    03:00 +20°C° 1,6 mm 0 m/s 672 mmHg 95%
    04:00 +20°C° 1,6 mm 0 m/s 672 mmHg 95%
    05:00 +20°C° 1 mm 0 m/s 672 mmHg 94%
    06:00 +20°C° 1 mm 0 m/s 673 mmHg 94%
    07:00 +20°C° 1 mm 0 m/s 673 mmHg 94%
    08:00 +20°C° 1,4 mm 0 m/s 673 mmHg 93%
    09:00 +21°C° 1,4 mm 0 m/s 674 mmHg 93%
    10:00 +23°C° 1,4 mm 1 m/s 674 mmHg 93%
    11:00 +23°C° 1,6 mm 1 m/s 673 mmHg 93%
    12:00 +23°C° 1,6 mm 1 m/s 673 mmHg 93%
    13:00 +23°C° 1,6 mm 1 m/s 672 mmHg 93%
    14:00 +23°C° 1,2 mm 1 m/s 672 mmHg 93%
    15:00 +21°C° 1,2 mm 0 m/s 672 mmHg 93%
    16:00 +21°C° 1,2 mm 0 m/s 671 mmHg 94%
    17:00 +20°C° 0,5 mm 0 m/s 672 mmHg 94%
    18:00 +20°C° 0,5 mm 0 m/s 672 mmHg 94%
    19:00 +22°C° 0,5 mm 1 m/s 672 mmHg 94%
    20:00 +20°C° 0,3 mm 0 m/s 672 mmHg 94%
    21:00 +19°C° 0,3 mm 0 m/s 673 mmHg 93%
    22:00 +19°C° 0,3 mm 0 m/s 673 mmHg 93%
    23:00 +19°C° 0,5 mm 0 m/s 673 mmHg 93%
    Voir plus